sat.trackr.live / text

‹ back to catalog

STARLINK-35093

NORAD 65478 · 2025-195W

PAYLOAD ACTIVE UNKNOWN

§ Identity

Operator
Country
US
Launch date
2025-09-03
Launch site
AFETR
Launch vehicle
Mass (kg)
RCS (m²)

Purposes: comms

External: N2YO · Heavens-Above · Gunter

§ Orbital elements

Epoch: 2026-05-24T19:34:48.722016Z

Period
94.01 min
Inclination
53.1587°
Eccentricity
0.0001114
Mean motion
15.31706295 rev/d
Perigee alt
470.0 km
Apogee alt
471.5 km
Semi-major
6,848.9 km
B*
9.8387e-4
RAAN
264.2444°
Arg perigee
71.8590°
Mean anomaly
288.2533°
Rev number
4,163

§ Raw data

STARLINK-350931 65478U 25195W   26144.81584169  .00030296  00000+0  98387-3 0  99982 65478  53.1587 264.2444 0001114  71.8590 288.2533 15.31706295 41638

JSON: /api/v1/satellites/65478 · /tle

For live sub-satellite position, see the globe view (requires WebGL).

§ Visibility from observer

Set your observer location to see the next 7 days of passes ≥ 10°. The values pass through the URL so the page stays shareable.

No JS? Fill the form by hand. The geolocation button needs JavaScript.